Probability
68 65 65 58 52 52 45 45 55 52 48 35 39 39 42 42 35 39 32 35 39 42 39 35 35 48 42 32 29 29 26 29 26 16 10 6 19 16 6 10 10 6 3
58 58 55 55 55 48 42 42 48 42 45 39 39 35 35 32 29 32 32 32 39 35 32 35 39 35 48 35 35 29 26 26 29 23 23 10 10 10 10 13 6 0 0
61 52 55 55 52 48 45 48 48 45 42 39 35 32 32 29 19 16 19 19 23 23 26 26 29 35 45 42 39 26 26 13 26 23 23 16 10 13 13 13 6 13 0
52 52 55 61 58 55 55 55 48 45 45 42 32 32 26 19 19 19 16 23 23 26 29 32 32 26 32 35 23 39 29 29 26 23 13 13 13 10 16 16 13 13 6
42 52 52 52 55 55 55 55 52 45 35 39 29 23 16 13 16 16 19 19 26 26 26 29 23 19 16 16 13 26 29 32 26 16 13 13 10 16 13 13 3 10 6
45 48 48 52 55 58 55 52 48 45 42 35 35 19 10 6 3 3 3 19 23 19 26 26 19 13 3 0 0 0 3 16 26 23 19 19 23 16 19 10 3 3 3
45 45 45 45 42 45 39 48 45 42 42 35 29 23 19 6 0 0 0 13 16 26 26 23 13 6 3 16 3 0 0 0 0 16 19 23 23 19 19 10 16 13 13
35 39 42 45 39 42 39 45 48 48 35 35 29 23 16 6 0 0 0 6 16 19 23 16 19 10 3 10 10 13 13 10 3 6 13 16 16 19 13 6 13 3 6
29 32 35 32 35 32 32 35 42 39 32 32 26 26 23 6 0 0 0 16 16 13 10 13 13 13 0 0 3 6 6 10 0 0 0 0 0 0 0 6 3 3 3
32 32 32 32 32 32 32 32 35 35 26 23 23 23 23 19 0 0 0 10 13 10 10 10 0 0 0 0 3 6 6 6 6 6 0 0 0 0 0 3 6 3 3
32 29 32 29 29 29 32 32 29 19 29 26 23 23 23 19 3 0 0 6 6 10 10 10 10 0 0 0 0 3 6 6 10 10 10 3 6 3 3 0 6 6 0
26 23 23 29 16 13 19 26 19 19 23 26 23 19 19 19 10 0 0 0 3 10 13 6 6 0 0 0 0 0 0 0 6 3 6 3 3 3 3 3 3 6 6
23 19 19 23 26 26 19 16 19 19 19 19 19 13 13 13 10 3 0 0 0 10 13 3 3 0 0 0 0 0 0 0 3 3 3 3 0 3 6 10 10 13 6
23 26 26 19 16 23 23 16 16 13 13 16 16 16 16 13 10 6 6 6 0 0 3 0 0 0 0 0 0 0 0 0 6 6 3 3 0 0 0 3 6 3 6
23 23 23 13 10 10 13 19 13 19 13 13 19 16 16 13 10 3 10 6 6 6 10 3 3 3 3 3 0 0 0 0 3 6 6 6 0 0 3 3 6 6 6
23 19 19 10 10 10 13 16 6 3 3 3 3 3 6 6 0 0 0 0 0 0 3 6 6 3 3 3 3 0 0 3 10 6 6 6 3 0 3 3 3 6 0
13 13 16 10 6 6 10 13 6 6 3 0 0 0 0 0 0 0 0 0 0 0 0 6 3 3 6 6 3 3 0 3 10 10 10 6 0 0 0 0 0 0 0
13 13 13 13 10 16 13 10 10 10 6 6 0 0 0 0 0 0 0 0 0 0 0 3 3 6 6 6 3 6 6 3 3 6 6 6 3 0 0 0 0 0 0
16 13 13 13 13 13 13 6 10 3 6 6 6 0 0 0 0 0 0 0 0 0 0 0 3 3 3 0 3 3 6 6 3 3 3 6 3 3 0 0 0 0 0
13 10 13 10 10 10 6 3 3 3 0 0 0 6 0 0 0 0 0 0 0 3 0 3 0 0 0 0 3 3 3 3 3 0 0 3 0 0 0 0 0 0 0
16 10 0 10 10 6 3 3 3 3 0 0 0 3 3 3 6 6 0 0 0 3 3 6 3 0 0 0 3 3 3 3 0 0 0 0 0 0 0 0 0 0 0
13 10 6 3 3 3 3 3 3 3 3 0 3 3 0 3 3 3 3 3 3 6 3 3 3 0 0 0 3 3 3 0 0 0 0 0 3 0 0 0 0 0 0
6 3 10 10 6 3 3 3 3 3 3 6 3 3 3 3 3 0 3 6 3 3 3 3 3 0 0 0 3 3 3 3 3 0 0 0 3 0 0 0 0 0 0
6 6 6 6 6 6 6 6 6 6 6 6 6 3 3 3 0 3 3 3 3 3 3 3 3 3 0 0 0 0 0 0 0 0 0 0 0 0 0 0 0 0 0
3 6 6 6 6 6 6 6 6 6 6 6 6 6 3 0 0 3 3 3 0 3 3 3 3 3 3 0 0 0 0 0 0 0 0 0 0 0 0 0 0 0 0
3 3 6 6 6 6 6 6 6 6 6 6 6 6 6 0 0 0 0 0 0 0 3 3 3 3 3 6 0 0 0 0 0 0 0 0 0 0 0 0 0 0 0
Height
5856 5855 5855 5854 5854 5853 5852 5852 5850 5848 5846 5844 5843 5841 5840 5838 5836 5835 5834 5833 5831 5830 5829 5828 5827 5826 5824 5823 5823 5822 5821 5821 5821 5820 5820 5819 5819 5819 5818 5817 5816 5815 5813
5852 5851 5851 5850 5850 5849 5849 5848 5847 5845 5843 5841 5839 5838 5836 5834 5832 5830 5829 5828 5827 5826 5825 5824 5823 5821 5820 5819 5818 5818 5817 5817 5816 5816 5815 5815 5814 5814 5813 5812 5811 5810 5809
5847 5847 5847 5846 5846 5845 5845 5845 5843 5841 5839 5838 5836 5834 5832 5830 5828 5826 5824 5823 5822 5821 5820 5819 5818 5817 5816 5815 5814 5813 5813 5812 5811 5811 5811 5810 5810 5809 5808 5807 5806 5804 5803
5843 5843 5842 5842 5842 5842 5841 5841 5840 5838 5836 5834 5832 5830 5828 5826 5824 5822 5821 5819 5818 5817 5816 5815 5814 5813 5812 5811 5810 5809 5808 5807 5807 5806 5806 5805 5804 5804 5803 5802 5800 5799 5798
5839 5839 5839 5838 5838 5838 5838 5837 5836 5834 5832 5830 5828 5826 5824 5822 5820 5819 5817 5815 5814 5813 5811 5810 5809 5808 5807 5806 5806 5805 5804 5803 5802 5801 5801 5800 5799 5798 5797 5796 5795 5793 5792
5834 5835 5834 5834 5834 5834 5833 5832 5831 5830 5828 5826 5824 5822 5820 5818 5816 5815 5813 5811 5810 5809 5807 5806 5805 5804 5803 5802 5801 5800 5799 5798 5797 5796 5795 5794 5793 5792 5791 5790 5789 5788 5786
5829 5830 5830 5829 5829 5829 5828 5827 5826 5825 5824 5822 5820 5818 5816 5814 5813 5811 5809 5807 5806 5805 5803 5801 5800 5799 5798 5796 5795 5794 5794 5793 5792 5791 5789 5788 5787 5786 5785 5784 5782 5781 5780
5823 5824 5824 5824 5824 5823 5823 5822 5821 5820 5819 5817 5816 5814 5812 5810 5808 5807 5805 5803 5801 5800 5799 5797 5795 5794 5792 5791 5790 5789 5788 5787 5786 5785 5784 5782 5781 5780 5779 5777 5776 5774 5773
5817 5818 5818 5818 5818 5818 5817 5816 5815 5814 5813 5812 5811 5809 5807 5805 5804 5802 5800 5799 5797 5795 5794 5792 5790 5789 5787 5785 5784 5783 5782 5780 5779 5778 5777 5776 5774 5773 5772 5771 5769 5768 5767
5811 5811 5811 5811 5811 5811 5811 5810 5809 5808 5808 5807 5805 5803 5802 5800 5799 5797 5795 5793 5792 5790 5789 5787 5785 5784 5782 5780 5779 5777 5776 5774 5773 5771 5770 5769 5768 5767 5766 5764 5763 5762 5760
5804 5804 5804 5804 5804 5804 5804 5804 5803 5802 5801 5800 5799 5798 5796 5795 5793 5791 5790 5788 5786 5785 5783 5781 5780 5778 5776 5774 5773 5771 5770 5768 5767 5765 5764 5762 5761 5760 5759 5758 5756 5755 5753
5797 5797 5797 5797 5798 5798 5797 5797 5796 5795 5795 5794 5793 5791 5790 5789 5788 5786 5784 5782 5781 5779 5777 5776 5774 5772 5770 5768 5767 5765 5764 5762 5760 5759 5758 5756 5755 5754 5753 5751 5750 5748 5747
5790 5791 5791 5790 5790 5790 5790 5790 5789 5789 5788 5787 5786 5785 5784 5783 5781 5780 5778 5776 5774 5773 5771 5769 5767 5765 5764 5762 5760 5758 5757 5755 5754 5752 5751 5750 5749 5747 5746 5744 5743 5741 5740
5783 5783 5784 5783 5783 5783 5783 5783 5782 5782 5781 5781 5780 5778 5777 5776 5775 5773 5771 5769 5767 5766 5764 5762 5760 5758 5757 5755 5753 5752 5750 5749 5747 5746 5744 5743 5742 5740 5739 5737 5736 5734 5733
5775 5776 5776 5776 5777 5776 5776 5776 5776 5775 5775 5774 5773 5771 5770 5769 5768 5766 5764 5762 5760 5758 5756 5755 5753 5752 5750 5748 5747 5745 5743 5742 5740 5739 5737 5736 5734 5733 5731 5730 5728 5727 5725
5768 5769 5769 5769 5769 5769 5769 5769 5769 5768 5768 5767 5765 5764 5763 5762 5760 5758 5757 5755 5753 5751 5749 5748 5746 5745 5744 5742 5740 5739 5737 5735 5733 5732 5730 5729 5727 5726 5724 5723 5721 5720 5718
5761 5762 5762 5763 5763 5762 5762 5762 5762 5761 5761 5760 5758 5757 5755 5754 5752 5750 5749 5747 5745 5743 5742 5741 5740 5738 5737 5735 5734 5732 5730 5728 5727 5725 5723 5722 5720 5718 5717 5715 5714 5712 5711
5754 5755 5755 5756 5756 5756 5755 5755 5755 5754 5753 5752 5751 5749 5748 5746 5744 5742 5741 5739 5738 5736 5735 5734 5732 5731 5730 5728 5727 5725 5723 5722 5720 5718 5716 5714 5713 5711 5709 5708 5706 5704 5703
5747 5748 5748 5748 5748 5748 5748 5748 5747 5746 5745 5744 5743 5742 5740 5738 5736 5735 5733 5731 5730 5729 5727 5726 5725 5723 5722 5721 5719 5717 5716 5714 5712 5711 5709 5707 5705 5703 5702 5700 5698 5696 5695
5740 5740 5740 5740 5741 5740 5740 5740 5739 5738 5738 5736 5735 5734 5732 5730 5728 5727 5725 5723 5722 5721 5719 5718 5717 5715 5714 5712 5711 5709 5708 5706 5705 5703 5701 5699 5697 5696 5694 5692 5690 5689 5687
5732 5732 5732 5732 5732 5732 5732 5732 5731 5730 5729 5728 5727 5725 5724 5722 5720 5718 5717 5715 5714 5712 5711 5710 5708 5707 5706 5704 5703 5701 5700 5698 5697 5695 5693 5692 5690 5688 5686 5684 5682 5681 5679
5723 5723 5724 5724 5724 5724 5724 5723 5723 5722 5721 5719 5718 5716 5715 5713 5712 5710 5708 5707 5705 5704 5702 5701 5699 5698 5697 5696 5694 5693 5692 5690 5689 5687 5685 5683 5682 5680 5678 5676 5674 5673 5671
5714 5714 5715 5715 5715 5715 5714 5714 5714 5713 5712 5711 5709 5707 5706 5704 5703 5701 5700 5698 5697 5695 5693 5691 5690 5689 5688 5687 5686 5684 5683 5682 5680 5679 5677 5675 5674 5672 5670 5668 5666 5665 5663
5705 5705 5705 5705 5706 5706 5705 5705 5704 5704 5703 5701 5700 5698 5696 5695 5694 5692 5691 5689 5688 5686 5684 5683 5682 5680 5679 5678 5677 5676 5675 5673 5672 5671 5669 5667 5666 5664 5662 5660 5658 5656 5655
5696 5696 5696 5696 5696 5696 5696 5696 5695 5694 5693 5692 5690 5689 5687 5686 5685 5683 5682 5680 5678 5677 5676 5675 5674 5672 5671 5670 5669 5668 5667 5665 5664 5662 5661 5659 5658 5656 5654 5652 5650 5648 5647
5687 5688 5687 5687 5687 5687 5686 5686 5685 5684 5683 5682 5681 5680 5678 5677 5675 5674 5672 5671 5670 5668 5667 5666 5665 5664 5663 5662 5661 5660 5659 5657 5656 5654 5652 5651 5649 5648 5646 5644 5642 5641 5639
Wind_Speed
14 14 14 15 14 13 13 12 13 13 13 14 14 14 14 15 14 14 15 15 15 15 15 15 14 14 14 15 15 15 16 16 17 17 17 17 16 17 17 18 18 19 19
16 15 15 15 15 15 14 13 13 14 13 13 13 14 14 14 14 15 15 15 15 16 16 16 15 15 15 15 15 16 16 17 17 18 18 18 18 18 18 19 19 20 20
17 17 16 16 16 16 15 14 14 15 14 14 14 15 15 15 15 15 15 16 17 17 17 17 17 16 15 15 15 16 17 18 18 18 19 19 19 19 19 20 20 20 21
17 16 16 15 15 15 16 16 15 15 15 15 15 15 15 15 15 15 15 16 17 17 17 17 17 16 15 15 16 16 17 18 18 18 19 19 19 20 20 20 20 21 21
17 17 17 17 16 16 16 16 16 16 16 16 16 16 16 16 16 16 15 16 16 16 16 17 17 17 17 17 17 17 18 18 18 18 18 19 19 20 20 20 21 21 21
17 17 17 18 18 18 17 17 18 17 17 16 17 17 17 17 17 17 17 16 16 16 16 17 17 18 18 19 19 19 18 18 18 18 19 21 21 21 21 21 21 21 21
19 19 18 19 19 20 19 19 19 19 18 17 18 18 17 17 17 18 18 17 17 17 17 17 18 18 19 19 19 20 20 19 19 19 20 20 20 21 21 21 22 22 22
20 20 20 20 21 21 21 20 20 20 19 19 18 18 18 18 18 18 18 18 18 18 18 18 18 18 18 18 18 18 19 20 20 20 20 21 21 20 20 21 22 22 22
22 22 22 22 21 21 21 21 21 21 20 19 19 19 19 19 19 18 19 19 19 19 19 19 19 19 19 19 19 19 19 19 20 21 21 21 21 20 20 21 21 22 22
22 23 23 22 22 22 22 22 22 22 21 21 21 20 20 20 19 19 19 20 20 20 20 20 19 19 19 19 19 19 19 20 21 21 21 21 21 21 21 21 22 23 23
23 23 22 22 22 23 23 23 23 22 22 21 22 21 21 20 20 20 20 20 20 20 20 20 20 19 19 20 19 19 20 20 21 21 21 21 21 21 21 22 23 23 23
22 23 23 23 24 24 23 23 23 23 22 23 23 22 21 21 21 21 21 21 21 21 21 21 21 20 20 21 21 21 21 21 21 21 22 22 22 21 22 22 23 23 23
24 24 24 23 24 24 24 24 23 23 23 22 22 22 22 22 22 22 22 22 23 23 22 22 22 22 21 21 21 21 21 21 21 21 21 22 23 23 23 23 23 23 23
25 25 25 24 23 23 24 23 23 24 23 23 23 23 23 23 23 23 23 23 23 23 23 23 22 22 21 21 21 21 21 21 21 21 22 23 23 23 23 23 23 23 23
24 24 24 24 23 22 22 22 22 22 23 23 24 24 24 24 24 25 24 24 23 23 23 23 22 21 21 21 21 21 21 22 22 22 22 23 23 24 24 24 23 23 24
23 23 23 23 23 23 22 22 22 23 23 24 24 24 24 24 25 26 25 24 24 23 23 22 22 22 22 21 22 22 22 22 22 22 23 23 23 24 25 25 24 24 24
24 24 24 24 24 23 22 22 22 22 23 23 24 25 25 25 26 26 25 24 23 23 22 22 23 23 22 23 23 23 23 23 23 23 23 23 23 24 25 25 26 26 25
24 24 24 24 23 22 22 23 22 23 23 24 25 26 26 26 26 26 26 26 24 23 23 23 23 23 23 24 24 24 24 24 24 24 24 24 24 24 25 26 26 26 26
23 23 23 23 23 23 23 23 24 24 24 24 25 26 25 25 25 25 25 25 25 24 24 24 24 25 25 25 25 26 26 26 25 25 25 25 25 25 25 26 26 26 26
25 24 24 24 24 24 25 25 25 25 25 26 27 26 25 25 25 25 25 25 25 25 25 25 25 25 26 26 26 26 26 26 25 25 25 25 25 25 25 25 25 25 25
25 25 25 25 25 25 25 25 25 26 26 26 27 27 27 26 26 26 26 26 26 26 26 26 26 26 27 27 27 26 26 25 25 26 26 25 25 25 25 25 24 25 25
26 26 26 26 26 26 27 26 26 27 27 27 27 28 27 28 28 26 26 27 27 27 28 28 28 28 27 27 26 26 26 26 26 26 26 25 25 25 25 25 25 25 25
26 26 26 26 25 26 26 27 27 27 28 28 28 28 28 28 28 28 27 27 28 29 29 29 28 28 27 27 26 26 26 26 26 25 26 25 25 25 26 26 25 25 25
26 26 26 26 26 26 26 27 27 27 27 28 28 28 28 28 28 28 28 28 28 29 28 27 27 27 27 26 26 26 26 25 25 25 25 25 25 25 25 25 25 25 25
26 25 25 26 26 26 27 27 27 27 28 28 28 28 27 27 28 28 28 28 28 28 27 26 26 26 26 26 26 25 26 25 25 25 25 25 25 25 25 25 25 24 24
24 25 25 26 26 27 27 27 27 27 27 27 27 27 27 28 28 28 27 27 27 27 27 27 27 26 26 26 26 25 25 25 24 24 25 25 25 25 24 24 24 24 24
Wind_Direction
271 274 276 277 276 279 284 290 293 296 299 296 294 296 299 297 292 291 291 291 293 294 292 292 292 291 288 283 277 274 272 271 272 274 274 274 275 277 277 278 280 281 281
270 271 274 277 276 277 280 286 293 298 301 299 298 300 302 301 296 291 291 293 294 294 293 292 291 291 289 287 280 275 274 273 272 272 272 273 276 279 280 281 282 282 283
269 269 270 274 276 275 275 283 294 298 298 299 298 299 300 300 299 298 294 292 292 292 292 291 289 289 289 288 285 280 277 276 274 272 274 273 275 278 282 281 281 280 281
266 265 266 271 275 277 279 285 292 295 295 295 296 298 298 298 298 299 299 296 292 291 291 290 290 290 288 288 286 284 282 279 277 275 275 276 277 279 280 281 282 283 282
263 264 265 268 271 274 278 283 289 293 295 296 298 298 296 296 296 295 297 299 297 295 293 291 291 289 287 286 286 285 284 283 280 279 279 279 281 282 281 281 282 283 285
262 265 268 270 271 273 277 282 285 290 295 298 299 299 297 295 295 295 295 297 298 299 297 294 291 289 287 285 284 284 286 285 284 284 281 280 280 283 281 282 282 283 285
261 263 267 268 270 272 275 278 281 286 293 296 297 297 298 296 294 295 296 296 297 298 298 296 294 292 291 288 286 285 284 284 282 284 285 284 283 284 284 283 283 284 285
261 262 265 267 269 272 275 276 279 283 288 291 293 294 296 296 295 295 296 296 297 297 298 297 295 294 292 291 290 287 284 284 284 284 284 282 281 282 282 283 285 285 285
260 262 264 266 268 271 272 275 277 279 283 286 289 291 293 295 294 293 295 294 295 296 296 297 296 295 292 290 289 289 288 287 287 284 283 281 279 279 280 284 285 285 286
259 262 265 265 266 269 271 274 276 278 280 282 286 288 290 292 293 292 292 293 293 293 294 295 295 294 293 290 289 289 288 288 288 285 283 281 280 279 280 284 286 286 285
260 262 264 266 267 270 271 273 273 274 277 281 284 285 287 289 291 293 292 292 292 292 293 294 293 293 291 290 288 287 286 287 287 285 284 283 282 281 281 284 285 286 286
260 262 263 266 268 269 271 272 273 275 276 278 279 281 283 285 288 291 292 292 292 292 292 293 292 290 289 288 287 286 285 285 286 286 285 284 284 283 283 284 285 286 287
262 262 263 264 265 267 269 272 272 274 275 277 278 280 281 282 285 288 289 291 291 292 291 291 292 291 289 288 288 287 286 286 286 286 286 284 283 283 283 284 285 286 288
260 262 264 266 266 267 268 270 272 270 273 276 278 279 281 282 284 286 288 289 290 290 290 289 289 289 288 288 289 288 286 286 286 285 284 283 282 284 284 285 286 287 287
259 261 263 266 267 267 267 268 271 272 273 275 278 279 280 281 282 285 286 287 288 288 288 287 287 287 286 287 287 286 286 286 285 284 284 284 284 283 283 283 285 286 287
258 261 264 266 267 266 267 269 270 272 275 277 277 280 281 282 283 284 284 285 286 286 286 287 286 285 284 284 284 285 286 287 286 286 285 285 284 284 282 283 284 286 287
260 262 265 268 268 267 270 273 273 272 275 277 279 281 282 282 282 282 282 284 284 284 284 285 285 283 282 281 282 283 284 286 287 287 288 286 285 284 282 281 282 284 286
264 264 265 267 266 267 270 273 275 276 277 278 279 282 283 283 281 281 282 282 282 282 282 283 283 282 281 281 281 281 281 282 284 285 287 287 287 286 285 284 284 284 286
263 264 266 267 266 268 270 271 273 276 277 278 279 283 284 284 284 285 284 281 279 280 280 281 282 282 281 279 279 280 280 281 283 285 286 286 287 287 287 286 284 285 287
263 264 266 268 267 268 270 272 274 276 278 278 278 280 283 284 284 284 284 282 279 279 279 279 280 282 282 280 279 280 280 281 282 284 285 286 287 288 288 288 286 286 288
262 263 266 268 268 268 270 273 274 276 277 278 278 280 281 283 283 283 284 282 280 278 277 277 278 279 279 279 280 281 281 280 281 283 283 284 284 286 287 288 287 286 287
263 264 266 268 268 268 270 272 274 276 278 278 278 279 280 281 281 282 282 282 281 279 277 277 278 279 279 279 279 279 280 281 281 281 283 283 283 284 286 288 288 287 288
265 265 266 267 268 269 271 273 274 276 277 278 280 280 280 280 281 281 281 282 281 280 280 281 281 280 280 279 277 278 278 279 281 282 284 284 284 284 286 287 287 287 287
265 266 267 267 269 270 273 274 275 274 276 279 281 281 281 280 281 281 281 282 282 281 281 281 282 282 281 279 277 277 278 280 282 283 284 284 284 285 286 286 286 286 286
266 266 267 269 270 272 274 275 275 275 277 278 280 281 281 280 281 282 282 282 281 281 281 281 281 281 281 281 279 278 278 279 280 282 283 283 284 284 284 285 284 284 284
266 267 268 270 271 273 274 276 276 277 277 278 279 279 279 280 281 282 283 282 281 282 282 281 279 279 279 280 280 281 282 281 281 281 282 283 284 283 283 283 282 282 282